TimeCST,TemperatureF,Dew PointF,Humidity,Sea Level PressureIn,VisibilityMPH,Wind Direction,Wind SpeedMPH,Gust SpeedMPH,PrecipitationIn,Events,Conditions,WindDirDegrees,DateUTC
12:15 AM,35.4,31.3,85,30.41,7.0,SE,3.5,-,N/A,,Clear,130,2012-11-18 06:15:00
12:35 AM,34.9,31.5,87,30.40,7.0,SE,3.5,-,N/A,,Clear,140,2012-11-18 06:35:00
12:55 AM,36.7,32.0,83,30.40,7.0,Calm,Calm,-,N/A,,Clear,0,2012-11-18 06:55:00
1:15 AM,37.2,32.2,82,30.40,7.0,Calm,Calm,-,N/A,,Clear,0,2012-11-18 07:15:00
1:35 AM,37.2,32.0,81,30.40,7.0,SE,3.5,-,N/A,,Clear,140,2012-11-18 07:35:00
1:55 AM,35.8,32.0,86,30.40,7.0,Calm,Calm,-,N/A,,Clear,0,2012-11-18 07:55:00
2:15 AM,34.5,31.5,89,30.40,7.0,SE,3.5,-,N/A,,Clear,130,2012-11-18 08:15:00
2:35 AM,34.9,31.6,88,30.40,7.0,Calm,Calm,-,N/A,,Clear,0,2012-11-18 08:35:00
2:55 AM,36.5,32.0,84,30.39,7.0,SE,3.5,-,N/A,,Clear,140,2012-11-18 08:55:00
3:15 AM,35.1,31.5,87,30.39,7.0,Calm,Calm,-,N/A,,Clear,0,2012-11-18 09:15:00
3:35 AM,34.2,32.0,92,30.39,7.0,SE,3.5,-,N/A,,Clear,130,2012-11-18 09:35:00
3:55 AM,31.8,30.0,93,30.38,4.0,Calm,Calm,-,N/A,,Clear,0,2012-11-18 09:55:00
4:15 AM,32.9,31.6,95,30.39,5.0,Calm,Calm,-,N/A,,Clear,0,2012-11-18 10:15:00
4:35 AM,32.0,31.1,96,30.39,5.0,Calm,Calm,-,N/A,,Clear,0,2012-11-18 10:35:00
4:55 AM,33.3,32.0,95,30.39,5.0,Calm,Calm,-,N/A,,Clear,0,2012-11-18 10:55:00
5:15 AM,31.8,30.4,94,30.39,5.0,Calm,Calm,-,N/A,,Clear,0,2012-11-18 11:15:00
5:35 AM,31.3,30.2,96,30.39,4.0,Calm,Calm,-,N/A,,Clear,0,2012-11-18 11:35:00
6:15 AM,30.6,29.8,97,30.38,3.0,Calm,Calm,-,N/A,,Clear,0,2012-11-18 12:15:00
6:35 AM,31.5,30.9,98,30.38,5.0,ENE,3.5,-,N/A,,Clear,70,2012-11-18 12:35:00
6:55 AM,31.1,30.2,96,30.38,3.0,Calm,Calm,-,N/A,,Clear,0,2012-11-18 12:55:00
7:15 AM,30.9,30.2,97,30.38,3.0,Calm,Calm,-,N/A,,Clear,0,2012-11-18 13:15:00
7:35 AM,31.6,30.0,94,30.38,4.0,Calm,Calm,-,N/A,,Clear,0,2012-11-18 13:35:00
7:55 AM,32.4,31.1,95,30.38,4.0,Calm,Calm,-,N/A,,Clear,0,2012-11-18 13:55:00
8:15 AM,35.6,33.1,91,30.38,4.0,Calm,Calm,-,N/A,,Clear,0,2012-11-18 14:15:00
8:35 AM,38.5,33.8,83,30.38,5.0,Calm,Calm,-,N/A,,Haze,0,2012-11-18 14:35:00
8:55 AM,40.8,35.1,80,30.37,5.0,SSE,4.6,-,N/A,,Haze,160,2012-11-18 14:55:00
9:15 AM,43.2,35.2,74,30.37,7.0,SSE,5.8,-,N/A,,Clear,150,2012-11-18 15:15:00
9:35 AM,45.0,35.2,69,30.37,7.0,SSE,5.8,-,N/A,,Clear,160,2012-11-18 15:35:00
9:55 AM,46.6,35.4,65,30.37,7.0,SSE,5.8,-,N/A,,Clear,160,2012-11-18 15:55:00
10:15 AM,49.5,34.9,57,30.37,10.0,South,10.4,-,N/A,,Clear,170,2012-11-18 16:15:00
10:35 AM,50.5,35.1,55,30.36,10.0,South,11.5,-,N/A,,Clear,170,2012-11-18 16:35:00
10:55 AM,50.0,33.8,54,30.36,10.0,South,11.5,-,N/A,,Clear,170,2012-11-18 16:55:00
11:15 AM,52.2,34.9,52,30.35,10.0,South,10.4,-,N/A,,Clear,180,2012-11-18 17:15:00
11:35 AM,52.5,35.2,52,30.34,10.0,SSE,9.2,-,N/A,,Clear,160,2012-11-18 17:35:00
11:55 AM,52.9,34.9,50,30.33,10.0,SSE,10.4,-,N/A,,Clear,150,2012-11-18 17:55:00
12:15 PM,54.0,34.5,48,30.32,10.0,South,10.4,-,N/A,,Clear,170,2012-11-18 18:15:00
12:35 PM,54.9,35.1,47,30.32,10.0,SSE,9.2,-,N/A,,Clear,150,2012-11-18 18:35:00
12:55 PM,55.6,35.2,46,30.31,10.0,SE,10.4,-,N/A,,Clear,140,2012-11-18 18:55:00
1:15 PM,54.9,35.1,47,30.31,10.0,SSE,9.2,-,N/A,,Clear,160,2012-11-18 19:15:00
1:35 PM,55.4,36.5,49,30.30,10.0,SE,9.2,-,N/A,,Clear,140,2012-11-18 19:35:00
1:55 PM,55.8,37.4,50,30.30,10.0,SE,9.2,-,N/A,,Clear,130,2012-11-18 19:55:00
2:15 PM,55.6,37.4,50,30.29,10.0,SE,6.9,-,N/A,,Clear,130,2012-11-18 20:15:00
2:35 PM,55.8,36.9,49,30.29,10.0,SE,10.4,-,N/A,,Clear,130,2012-11-18 20:35:00
2:55 PM,54.5,37.4,52,30.29,10.0,SE,9.2,-,N/A,,Clear,130,2012-11-18 20:55:00
3:15 PM,53.8,37.2,54,30.29,10.0,SE,8.1,-,N/A,,Clear,130,2012-11-18 21:15:00
3:35 PM,52.7,37.4,56,30.29,10.0,ESE,6.9,-,N/A,,Clear,120,2012-11-18 21:35:00
3:55 PM,52.7,37.4,56,30.29,10.0,SE,6.9,-,N/A,,Clear,130,2012-11-18 21:55:00
4:15 PM,51.1,36.7,58,30.29,10.0,SE,6.9,-,N/A,,Clear,130,2012-11-18 22:15:00
4:35 PM,49.3,36.1,61,30.29,10.0,SE,8.1,-,N/A,,Clear,130,2012-11-18 22:35:00
4:55 PM,47.5,35.1,62,30.29,10.0,ESE,9.2,-,N/A,,Clear,120,2012-11-18 22:55:00
5:15 PM,48.2,34.9,60,30.29,10.0,SE,8.1,-,N/A,,Clear,130,2012-11-18 23:15:00
5:35 PM,47.7,34.3,60,30.29,10.0,SE,6.9,-,N/A,,Clear,130,2012-11-18 23:35:00
5:55 PM,47.3,34.0,60,30.30,10.0,SE,5.8,-,N/A,,Clear,140,2012-11-18 23:55:00
6:15 PM,45.7,34.0,64,30.30,10.0,SSE,5.8,-,N/A,,Clear,150,2012-11-19 00:15:00
6:35 PM,45.7,34.3,65,30.30,10.0,SSE,6.9,-,N/A,,Clear,150,2012-11-19 00:35:00
6:55 PM,45.5,34.7,66,30.31,10.0,SSE,4.6,-,N/A,,Clear,150,2012-11-19 00:55:00
7:15 PM,45.1,34.3,66,30.29,10.0,SE,5.8,-,N/A,,Clear,140,2012-11-19 01:15:00
7:35 PM,44.2,34.7,69,30.29,10.0,SE,9.2,-,N/A,,Clear,140,2012-11-19 01:35:00
7:55 PM,45.7,34.7,65,30.29,10.0,SSE,6.9,-,N/A,,Clear,150,2012-11-19 01:55:00
8:15 PM,45.1,34.2,65,30.28,10.0,SE,8.1,-,N/A,,Clear,140,2012-11-19 02:15:00
8:35 PM,46.0,34.0,63,30.28,10.0,SSE,10.4,-,N/A,,Clear,150,2012-11-19 02:35:00
8:55 PM,46.4,33.8,62,30.28,10.0,SE,9.2,-,N/A,,Clear,140,2012-11-19 02:55:00
9:15 PM,46.0,34.0,63,30.29,10.0,SSE,6.9,-,N/A,,Clear,150,2012-11-19 03:15:00
9:35 PM,45.5,34.2,65,30.28,10.0,SSE,5.8,-,N/A,,Clear,160,2012-11-19 03:35:00
9:55 PM,44.8,34.7,68,30.27,10.0,SSE,8.1,-,N/A,,Clear,160,2012-11-19 03:55:00
10:15 PM,46.8,35.1,64,30.27,10.0,SSE,9.2,-,N/A,,Clear,160,2012-11-19 04:15:00
10:35 PM,47.5,35.2,63,30.27,10.0,South,10.4,-,N/A,,Clear,170,2012-11-19 04:35:00
10:55 PM,46.6,35.1,64,30.27,10.0,South,8.1,-,N/A,,Clear,180,2012-11-19 04:55:00
11:15 PM,45.3,35.2,68,30.27,10.0,SSE,8.1,-,N/A,,Clear,160,2012-11-19 05:15:00
11:35 PM,44.1,35.2,71,30.27,10.0,SSE,6.9,-,N/A,,Clear,160,2012-11-19 05:35:00
11:55 PM,43.9,35.2,72,30.26,10.0,SSE,6.9,-,N/A,,Clear,160,2012-11-19 05:55:00